Notices

What's New in latest Release from April 7th, 2021:

- Updated Glossary, including Speed of Maximum Gust, and Total Hourly Precipitation

- Updated national and regional climate services offices contacts and prices information

- Addition of station inventory lists for 1981-2010, 1971-2000, and 1961-1990 Normals.

If you haven't already, please take our survey and provide feedback about our website: https://eccc.sondage-survey.ca/f/LanguageSelection.aspx?s=442ca660-fcf1-47c0-95a9-59707d6fd709

Hourly Data Report for March 15, 2021

NANAIMO A
BRITISH COLUMBIA
Current Station Operator: NAVCAN

49°03'16.000" N
123°52'12.000" W
28.00 m
1025365
YCD

Download Data

Hourly Data (March 2021)
Hourly Data Report for March 15, 2021
TIME
LST
Temp Definition
°C
Dew Point Definition
°C
Rel Hum Definition
%
Precip. Amount Definition
mm

Wind Dir Definition
10's deg

Wind Spd Definition
km/h
Visibility Definition
km
Stn Press Definition
kPa
Hmdx Definition


Wind Chill Definition


Weather Definition


00:00 2.1 -7.4 49 LegendMM 26 7 LegendMM 101.52     LegendNANA
01:00 0.6 -6.9 58 LegendMM 27 5 LegendMM 101.56     LegendNANA
02:00 0.0 -6.5 61 LegendMM 25 8 LegendMM 101.61   -3 LegendNANA
03:00 -0.1 -6.8 61 LegendMM 27 7 LegendMM 101.63   -3 LegendNANA
04:00 0.2 -7.3 57 LegendMM 27 7 LegendMM 101.66     LegendNANA
05:00 1.2 -7.2 54 LegendMM 25 9 LegendMM 101.72     LegendNANA
06:00 1.7 -6.0 57 LegendMM 28 10 LegendMM 101.76     LegendNANA
07:00 2.4 -5.5 56 LegendMM 31 4 LegendMM 101.85     LegendNANA
08:00 2.8 -5.0 56 LegendMM 29 11 LegendMM 101.93     LegendNANA
09:00 4.7 -3.9 54 LegendMM 30 14 LegendMM 101.98     LegendNANA
10:00 5.9 -3.6 50 LegendMM 34 19 LegendMM 102.00     LegendNANA
11:00 7.6 -2.8 48 LegendMM 36 17 LegendMM 101.99     LegendNANA
12:00 8.7 -2.7 45 LegendMM 36 14 LegendMM 101.99     LegendNANA
13:00 9.0 -1.9 46 LegendMM 36 16 LegendMM 101.97     LegendNANA
14:00 9.0 -2.5 45 LegendMM 35 19 LegendMM 101.96     LegendNANA
15:00 9.0 -3.2 42 LegendMM 1 20 LegendMM 101.97     LegendNANA
16:00 8.8 -3.7 41 LegendMM 36 16 LegendMM 101.97     LegendNANA
17:00 8.1 -4.8 40 LegendMM 3 11 LegendMM 101.96     LegendNANA
18:00 6.6 -5.2 43 LegendMM 35 5 LegendMM 101.96     LegendNANA
19:00 3.5 -2.5 65 LegendMM 26 9 LegendMM 102.00     LegendNANA
20:00 2.8 -2.8 67 LegendMM 31 5 LegendMM 102.05     LegendNANA
21:00 1.5 -3.1 72 LegendMM 26 8 LegendMM 102.07     LegendNANA
22:00 2.2 -3.3 67 LegendMM 25 10 LegendMM 102.08     LegendNANA
23:00 2.1 -3.4 67 LegendMM 26 12 LegendMM 102.07     LegendNANA

Notes on Data Quality.

Legend

  • E = Estimated
  • M = Missing
  • NA = Not Available*
  • [empty] = Indicates an unobserved value
Date modified: